• MPC Preparation (Info)

  • MPEC 2010-G107: 2010 GW62

    The following Minor Planet Electronic Circular may be linked-to from your own Web pages, but must not otherwise be redistributed electronically.

    A form allowing access to any MPEC is at the bottom of this page.


    Read MPEC 2010-G106 Read MPEC 2010-G108


    M.P.E.C. 2010-G107                               Issued 2010 Apr. 14, 11:35 UT
    
         The Minor Planet Electronic Circulars contain information on unusual
             minor planets and routine data on comets.  They are published
       on behalf of Commission 20 of the International Astronomical Union by the
              Minor Planet Center, Smithsonian Astrophysical Observatory,
                              Cambridge, MA 02138, U.S.A.
    
                 Prepared using the Tamkin Foundation Computer Network
    
                                  MPC@CFA.HARVARD.EDU
           URL https://www.minorplanetcenter.org/iau/mpc.html  ISSN 1523-6714
    
                                       2010 GW62
    
    Observations:
         K10G62W* S2010 04 09.90524 18 45 22.66 +41 10 38.0          22   R EG107C51
         K10G62W  s2010 04 09.90524 1 + 1946.3261 - 4895.3881 + 4458.1932   EG107C51
         K10G62W  S2010 04 10.16998 18 44 40.20 +41 12 59.8                 EG107C51
         K10G62W  s2010 04 10.16998 1 + 1973.9616 - 4929.9625 + 4408.1804   EG107C51
         K10G62W  S2010 04 10.23607 18 44 29.55 +41 13 36.1                 EG107C51
         K10G62W  s2010 04 10.23607 1 + 1976.0217 - 4897.7829 + 4442.9035   EG107C51
         K10G62W  S2010 04 10.30228 18 44 18.82 +41 14 13.9                 EG107C51
         K10G62W  s2010 04 10.30228 1 + 1984.5648 - 4920.2450 + 4414.1945   EG107C51
         K10G62W  S2010 04 10.36837 18 44 08.28 +41 14 49.5                 EG107C51
         K10G62W  s2010 04 10.36837 1 + 1986.4196 - 4888.2796 + 4448.4306   EG107C51
         K10G62W  S2010 04 10.43459 18 43 57.56 +41 15 24.1                 EG107C51
         K10G62W  s2010 04 10.43459 1 + 1994.8141 - 4910.5097 + 4420.1942   EG107C51
         K10G62W  S2010 04 10.50067 18 43 46.77 +41 15 57.7                 EG107C51
         K10G62W  s2010 04 10.50067 1 + 1996.4915 - 4877.7620 + 4455.6171   EG107C51
         K10G62W  S2010 04 10.56689 18 43 36.04 +41 16 32.5                 EG107C51
         K10G62W  s2010 04 10.56689 1 + 2005.0907 - 4899.5332 + 4427.9128   EG107C51
         K10G62W  C2010 04 14.30830 18 33 01.29 +41 46 37.4          20.4 R EG107H01
         K10G62W  C2010 04 14.31986 18 32 59.20 +41 46 42.6          20.1 R EG107H01
         K10G62W  C2010 04 14.33330 18 32 56.78 +41 46 49.0          20.5 R EG107H01
         K10G62W  C2010 04 14.35453 18 32 52.94 +41 46 59.1          20.4 R EG107H01
    
    Observer details:
    H01 Magdalena Ridge Observatory, Socorro.  Observer W. H. Ryan.  2.4-m f/8.9
        reflector + CCD.
    C51 WISE.  Measurers A. Mainzer, E. Wright, J. Bauer, T. Grav, J. Dailey, J.
        Masiero, R. Cutri, R. McMillan, R. Walker.
        (http://wise.ssl.berkeley.edu/mission_sci.html)
    
    Orbital elements:
    2010 GW62                                                Earth MOID = 0.4592 AU
    Epoch 2010 July 23.0 TT = JDT 2455400.5                 MPC
    M 111.09765              (2000.0)            P               Q
    n   0.61950039     Peri.  354.63539     -0.03987758     -0.81124882
    a   1.3628299      Node    96.63531     +0.93720758     -0.23280780
    e   0.6177457      Incl.   35.96375     +0.34648481     +0.53635425
    P   1.59           H   19.0           G   0.15           U   9
    Residuals in seconds of arc
    100409 C51  0.1+  0.1+    100410 C51  0.7+  1.7+    100414 H01  0.1+  0.1+
    100410 C51  0.1-  1.6-    100410 C51  0.6+  0.9+    100414 H01  0.0   0.2-
    100410 C51  0.2-  0.8-    100410 C51  0.3-  0.6-    100414 H01  0.0   0.1-
    100410 C51  0.8-  1.4+    100410 C51  0.1-  1.0-    100414 H01  0.1-  0.1+
    
    Ephemeris:
    2010 GW62                a,e,i = 1.36, 0.62, 36                  q = 0.5209
    Date    TT    R. A. (2000) Decl.     Delta      r     Elong.  Phase     V
    2010 04 14    18 33.92   +41 44.4    0.732    1.280    93.8    51.4    20.8
    2010 04 24    18 01.15   +42 27.5    0.738    1.374   102.9    45.5    20.8
    2010 05 04    17 23.00   +41 47.3    0.749    1.461   111.6    39.9    20.8
    2010 05 14    16 43.61   +39 20.7    0.773    1.542   119.1    34.9    20.8
    2010 05 24    16 08.28   +35 11.7    0.816    1.618   124.1    31.2    20.9
    2010 06 03    15 40.56   +29 54.8    0.882    1.688   125.7    29.2    21.1
    2010 06 13    15 21.12   +24 12.5    0.970    1.754   124.0    28.7    21.4
    2010 06 23    15 09.05   +18 37.1    1.080    1.814   119.8    29.1    21.7
    
    Timothy B. Spahr             (C) Copyright 2010 MPC           M.P.E.C. 2010-G107
    

    Read MPEC 2010-G106 Read MPEC 2010-G108


    MPEC number:

    Enter an MPEC number in one of the following forms:

    • 1997-B01 (the full form)
    • J97B01 (the packed version of the full form)
    • B01 (the abbreviated form)